AirNav   Duncan Aviation - Near you to keep you flying
 
 1649 users online  

CA39 Belos Cavalos Airport
Santa Rosa, California, USA

GOING TO SANTA ROSA?


FAA INFORMATION EFFECTIVE 04 NOVEMBER 2021

Location

FAA Identifier: CA39
Lat/Long: 38-26-04.6790N 122-33-48.9370W
38-26.077983N 122-33.815617W
38.4346331,-122.5635936
(estimated)
Elevation: 450 ft. / 137 m (estimated)
Variation: 16E (1985)
From city: 6 miles E of SANTA ROSA, CA
Time zone: UTC -7 (UTC -8 during Standard Time)
Zip code: 95409

Airport Operations

Airport use: Private use. Permission required prior to landing
Activation date: 03/1964
Control tower: no
ARTCC: OAKLAND CENTER
FSS: OAKLAND FLIGHT SERVICE STATION
Attendance: CONTINUOUS
Wind indicator: yes
Segmented circle: no

Airport Communications

WX AWOS-3P at O69 (11 nm S): 132.325 (707-773-1529)
WX ASOS at STS (13 nm W): 120.55 (707-573-8393)
WX AWOS-3P at DVO (17 nm S): 120.675 (415-897-2236)
WX ASOS at APC (19 nm SE): PHONE 707-252-7916

Nearby radio navigation aids

VOR radial/distance  VOR name  Freq  Var
SGDr313/17.7SCAGGS ISLAND VORTAC112.1017E
PYEr017/25.7POINT REYES VOR/DME113.7017E
CCRr297/33.8CONCORD VOR/DME117.0017E
SAUr340/34.8SAUSALITO VOR/DME116.2017E

Airport Services

Airframe service: MINOR
Powerplant service: MINOR

Runway Information

Runway E/W

Dimensions: 2500 x 70 ft. / 762 x 21 m
Surface: dirt
RUNWAY E  RUNWAY W
Traffic pattern: leftleft
Obstructions: treespline

Runway N/S

Dimensions: 1500 x 80 ft. / 457 x 24 m
Surface: dirt
RUNWAY N  RUNWAY S
Traffic pattern: leftleft
Obstructions: trees mtn-mnone

Airport Ownership and Management from official FAA records

Ownership: Privately-owned
Owner: BELLUZZO CHERLYN M TRUST
88 KING STREET, #1205
SAN FRANCISCO, CA 94107
Phone (208) 867-9372
Manager: ANGEL CONTRERAS
687 CAMPAGNA LANE
KENWOOD, CA 95452
Phone (707) 758-7715

Airport Operational Statistics

Aircraft based on the field: 1
Multi engine airplanes: 1
    

Additional Remarks

RWY HAS X'S ON EACH END.
FOR CD CTC OAKLAND ARTCC AT 510-745-3380.

Instrument Procedures

There are no published instrument procedures at CA39.

Some nearby airports with instrument procedures:

O69 - Petaluma Municipal Airport (11 nm S)
KSTS - Charles M Schulz - Sonoma County Airport (13 nm W)
KDVO - Gnoss Field Airport (17 nm S)
KAPC - Napa County Airport (19 nm SE)
KVCB - Nut Tree Airport (29 nm E)
 
Loc | Ops | Rwys | IFR | FBO | Links
Com | Nav | Svcs | Stats | Notes

Sonoma Jet Center
 
Area around CA39 (Belos Cavalos Airport)
 
Road maps at: MapQuest Bing Google
 
Aerial photo
WARNING: Photo may not be current or correct
Aerial photo of CA39 (Belos Cavalos Airport)
Photo by Dr. Charlyn Belluzzo and Bill Sherlock
Photo taken 06-Aug-2013
looking north.

Do you have a better or more recent aerial photo of Belos Cavalos Airport that you would like to share? If so, please send us your photo.

 
Sectional chart

 
Airport distance calculator
Flying to Belos Cavalos Airport? Find the distance to fly.

From to CA39

Sunrise and sunset
Times for 29-Nov-2021
 Local
(UTC-8)
 Zulu
(UTC)
Morning civil twilight06:3914:39
Sunrise07:0815:08
Sunset16:4900:49
Evening civil twilight17:1901:19

Current date and time
Zulu (UTC)  30-Nov-2021 00:21:57
Local (UTC-8)  29-Nov-2021 16:21:57
 
METAR
KO69 
11nm S 
292225Z AUTO 00000KT 10SM 20/13 A3012 RMK A01
KSTS 
13nm W 
707-573-8393
292353Z 16005KT 10SM CLR 21/13 A3011 RMK AO2 SLP188 T02110128 10222 20128 56013
KDVO 
17nm S 
292355Z AUTO 11003KT 10SM CLR 19/12 A3012 RMK AO2
KAPC 
19nm SE 
290754Z AUTO 36005KT 8SM CLR 08/07 A3019 RMK AO2 SLP216 T00830072 401940056
TAF
KSTS 
13nm W 
291730Z 2918/3018 00000KT 6SM BR HZ FEW002 FM292000 15003KT P6SM SKC FM300700 00000KT 2SM BR FEW250 FM301100 00000KT 1/2SM FG VV002 FM301700 VRB03KT 6SM BR FEW250
KAPC 
19nm SE 
291739Z 2918/3018 VRB03KT 6SM BR SKC FM292100 12007KT P6SM SKC FM300300 VRB04KT P6SM FEW250 FM301500 00000KT 4SM BR SCT250 AMD NOT SKED
NOTAMs
Click for the latest NOTAMs
NOTAMs are issued by the DoD/FAA and will open in a separate window not controlled by AirNav.

 

 
 

Would you like to see your business listed on this page?

 If your business provides an interesting product or service to pilots, flight crews, aircraft, or users of the Belos Cavalos Airport, you should consider listing it here.  To start the listing process, click on the button below
 
Add a business
 

Other Pages about Belos Cavalos Airport

Update a link
 
Copyright © AirNav, LLC. All rights reserved. Privacy Policy  Contact